Meriden, CT

8:26 AM EST on February 19, 2017 (GMT -0500)
Meriden Markham Municipal

Weather History for KMMK - September, 2013

Change the Weather History Date:

Wednesday, September 11, 2013

  Actual Average (KOXC) Record (KOXC)
Temperature  
Mean Temperature 81 °F -  
Max Temperature 93 °F 70 °F 91 °F (2013)
Min Temperature 69 °F 53 °F 42 °F (1998)
Cooling Degree Days 16    
Growing Degree Days 31 (Base 50)    
Moisture  
Dew Point 71 °F    
Average Humidity 81    
Maximum Humidity 100    
Minimum Humidity 54    
Precipitation  
Precipitation 0.00 in - - ()
Sea Level Pressure  
Sea Level Pressure 30.05 in    
Wind  
Wind Speed 5 mph (South)    
Max Wind Speed 14 mph    
Max Gust Speed 20 mph    
Visibility 5 miles    
Events      
Averages and records for this station are not official NWS values.
T = Trace of Precipitation, MM = Missing Value Source: NWS Daily Summary

Daily Weather History Graph

Daily Weather History Graph

Search for Another Location

Airport or City:

Trip Planner

Search our weather history database for the weather conditions in past years. The results will help you decide how hot, cold, wet, or windy it might be!

Date:

Astronomy

Sep. 11, 2013 Rise Set
Actual Time 6:27 AM EDT 7:07 PM EDT
Civil Twilight 5:59 AM EDT 7:35 PM EDT
Nautical Twilight 5:26 AM EDT 8:08 PM EDT
Astronomical Twilight 4:52 AM EDT 8:42 PM EDT
Moon 12:57 PM EDT (9/11) 10:55 PM EDT (9/11)
Length of Visible Light 13h 35m
Length of Day
12h 39m
Waxing Crescent, 38% of the Moon is Illuminated
Sep 11
Waxing Crescent
Sep 12
First Quarter
Sep 19
Full
Sep 26
Last Quarter
Oct 4
New

Hourly Weather History & Observations

Time (EDT) Temp. Heat Index Dew Point Humidity Pressure Visibility Wind Dir Wind Speed Gust Speed Precip Events Conditions
12:53 AM 72.0 °F - 69.1 °F 91% 30.09 in 5.0 mi South 6.9 mph - N/A   Clear
1:53 AM 71.1 °F - 69.1 °F 93% 30.08 in 4.0 mi SSE 4.6 mph - N/A   Clear
2:53 AM 71.1 °F - 69.1 °F 93% 30.07 in 3.0 mi SSE 4.6 mph - N/A   Clear
3:53 AM 71.1 °F - 69.1 °F 93% 30.06 in 2.5 mi SSE 3.5 mph - N/A   Clear
4:53 AM 70.0 °F - 69.1 °F 97% 30.06 in 2.0 mi SSE 3.5 mph - N/A   Mostly Cloudy
5:18 AM 69.8 °F - 69.8 °F 100% 30.07 in 1.8 mi South 3.5 mph - N/A   Scattered Clouds
5:36 AM 69.8 °F - 69.8 °F 100% 30.07 in 1.8 mi Calm Calm - N/A   Mostly Cloudy
5:53 AM 70.0 °F - 69.1 °F 97% 30.07 in 1.5 mi Calm Calm - N/A   Overcast
6:53 AM 70.0 °F - 69.1 °F 97% 30.09 in 1.0 mi Calm Calm - N/A   Mist
7:25 AM 71.6 °F - 69.8 °F 94% 30.10 in 1.5 mi South 6.9 mph - N/A   Mostly Cloudy
7:33 AM 71.6 °F - 69.8 °F 94% 30.10 in 1.5 mi South 5.8 mph - N/A   Partly Cloudy
7:53 AM 72.0 °F - 70.0 °F 93% 30.09 in 1.8 mi SSE 3.5 mph - N/A   Clear
8:06 AM 73.4 °F - 71.6 °F 94% 30.10 in 2.0 mi SSE 3.5 mph - N/A   Clear
8:40 AM 75.2 °F - 71.6 °F 89% 30.10 in 3.0 mi South 6.9 mph - N/A   Clear
8:53 AM 75.9 °F - 71.1 °F 85% 30.10 in 4.0 mi South 5.8 mph - N/A   Haze
9:53 AM 80.1 °F 83.8 °F 72.0 °F 76% 30.10 in 5.0 mi South 5.8 mph - N/A   Haze
10:53 AM 86.0 °F 93.8 °F 73.9 °F 67% 30.09 in 7.0 mi Variable 3.5 mph - N/A   Clear
11:53 AM 88.0 °F 97.5 °F 75.0 °F 65% 30.07 in 7.0 mi Variable 5.8 mph - N/A   Clear
12:53 PM 91.0 °F 101.6 °F 75.0 °F 59% 30.05 in 7.0 mi South 8.1 mph - N/A   Clear
1:53 PM 91.9 °F 103.2 °F 75.0 °F 58% 30.03 in 7.0 mi South 9.2 mph - N/A   Clear
2:53 PM 93.0 °F 103.2 °F 73.9 °F 54% 30.01 in 7.0 mi Variable 6.9 mph - N/A   Clear
3:53 PM 91.9 °F 101.3 °F 73.9 °F 55% 30.00 in 7.0 mi South 13.8 mph 19.6 mph N/A   Clear
4:53 PM 89.1 °F 97.0 °F 73.0 °F 59% 29.98 in 7.0 mi South 11.5 mph - N/A   Clear
5:53 PM 84.9 °F 90.1 °F 71.1 °F 63% 29.98 in 8.0 mi South 13.8 mph 19.6 mph N/A   Clear
6:53 PM 82.0 °F 85.5 °F 69.1 °F 65% 30.00 in 10.0 mi South 9.2 mph - N/A   Clear
7:53 PM 80.1 °F 82.9 °F 69.1 °F 69% 30.01 in 10.0 mi South 8.1 mph - N/A   Clear
8:53 PM 79.0 °F - 69.1 °F 72% 30.01 in 9.0 mi South 5.8 mph - N/A   Scattered Clouds
9:53 PM 75.9 °F - 70.0 °F 82% 30.01 in 8.0 mi Calm Calm - N/A   Partly Cloudy
10:53 PM 73.9 °F - 71.1 °F 91% 30.02 in 6.0 mi Calm Calm - N/A   Clear
11:53 PM 72.0 °F - 70.0 °F 93% 29.99 in 5.0 mi Calm Calm - N/A   Clear